Location: Elstree
(51.6403°N, 0.2969°W)
Time: 16:44:37
(UTC+00:00)

FALCON 9 DEB - Pass Details

Date: 03 March 2021
Orbit: 366 x 384 km, 53.0° (Epoch: 16 April)

Event Time Altitude Azimuth Distance (km) Brightness Sun altitude
Rises 19:59:33 0° 285° (WNW) 2,286 8.3 -21.4°
Reaches altitude 10° 20:01:37 10° 285° (WNW) 1,427 6.9 -21.7°
Enters shadow 20:04:04 49° 285° (WNW) 509 3.8 -22.1°
